Simultaneous Nadir Overpasses (SNOs) Predictions

Prediction of SNOs between METOP-B and TERRA Satellite Orbit:

Table of predicted SNOs for the next 14.0 days since TLE Epoch: 7/5/2014
Index Date (METOP-B) Time (METOP-B) Lat,Lon (METOP-B) SZA (METOP-B ) Date (TERRA) Time (TERRA) Lat,Lon (TERRA) SZA (TERRA ) Distance(km) Time Diff (sec)
1 07/07/2014 04:55:04 -81.32, -26.21 118.45 07/07/2014 04:56:02 -81.33, -26.15 118.41 1.41 58
2 07/07/2014 05:45:44 81.33, 141.65 61.62 07/07/2014 05:45:28 81.34, 141.57 61.61 1.38 16
3 07/10/2014 00:29:24 -81.33, 40.25 118.13 07/10/2014 00:30:14 -81.33, 40.27 118.11 0.67 50
4 07/10/2014 01:20:04 81.33,-151.95 61.93 07/10/2014 01:19:40 81.33,-152.05 61.91 1.74 24
5 07/12/2014 20:03:44 -81.33, 106.68 117.77 07/12/2014 20:04:26 -81.32, 106.54 117.77 2.26 42
6 07/1
